AB5KT-1 Weather Reports


Display with metric or nautical units.
time (UTC)temp
F
wind
direction
speed
MPH
gust
MPH
rain 1hr
in
rain 24hr
in
rain mn
in
humidity
%
barometer
mb
20260906165236 90 152 2.0 6.0 0.00 0.00 0.00 58 1015.7
20260906164735 90 185 2.0 5.0 0.00 0.00 0.00 59 1015.6
20260906164235 89 123 3.0 7.0 0.00 0.00 0.00 60 1015.7
20260906163736 89 187 3.0 7.0 0.00 0.00 0.00 59 1015.6
20260906163235 89 191 1.0 7.0 0.00 0.00 0.00 60 1015.7
20260906162735 89 192 3.0 8.0 0.00 0.00 0.00 60 1015.7
20260906162240 88 122 2.0 7.0 0.00 0.00 0.00 62 1015.7
20260906162236 88 151 3.0 8.0 0.00 0.00 0.00 61 1015.7
20260906161236 88 129 2.0 7.0 0.00 0.00 0.00 61 1015.7
20260906160740 88 161 1.0 4.0 0.00 0.00 0.00 63 1015.6
20260906160735 89 138 1.0 7.0 0.00 0.00 0.00 61 1015.7
20260906160339 88 120 2.0 8.0 0.00 0.00 0.00 64 1015.6
20260906155236 87 128 3.0 8.0 0.00 0.00 0.00 64 1015.7
20260906154735 87 161 2.0 7.0 0.00 0.00 0.00 63 1015.6
20260906154236 87 54 1.0 5.0 0.00 0.00 0.00 63 1015.4
20260906153736 86 130 2.0 5.0 0.00 0.00 0.00 65 1015.5
20260906153235 86 220 2.0 7.0 0.00 0.00 0.00 66 1015.4
20260906152736 86 161 2.0 7.0 0.00 0.00 0.00 66 1015.5
20260906152236 86 119 2.0 6.0 0.00 0.00 0.00 66 1015.5
20260906151735 85 118 1.0 6.0 0.00 0.00 0.00 66 1015.5
20260906151239 85 203 1.0 6.0 0.00 0.00 0.00 67 1015.5
20260906151235 85 146 1.0 6.0 0.00 0.00 0.00 68 1015.4
20260906150840 85 205 1.0 5.0 0.00 0.00 0.00 67 1015.4
20260906145739 85 205 2.0 5.0 0.00 0.00 0.00 68 1015.5
20260906145735 85 141 1.0 5.0 0.00 0.00 0.00 69 1015.4
20260906144734 85 133 1.0 5.0 0.00 0.00 0.00 68 1015.4
20260906144234 85 119 0.0 2.0 0.00 0.00 0.00 69 1015.2
20260906143733 84 119 1.0 3.0 0.00 0.00 0.00 69 1015.1
20260906143234 83 139 1.0 6.0 0.00 0.00 0.00 71 1015.2
20260906142734 83 195 2.0 6.0 0.00 0.00 0.00 71 1015.2
20260906142233 83 196 2.0 6.0 0.00 0.00 0.00 72 1015.2
20260906141733 83 128 2.0 6.0 0.00 0.00 0.00 72 1015.1
20260906141238 82 141 2.0 6.0 0.00 0.00 0.00 74 1015.0
20260906141234 83 153 2.0 6.0 0.00 0.00 0.00 73 1015.1
20260906140231 82 175 2.0 6.0 0.00 0.00 0.00 74 1015.0
20260906135734 81 132 4.0 8.0 0.00 0.00 0.00 76 1015.0
20260906135730 82 169 3.0 8.0 0.00 0.00 0.00 75 1015.0
20260906134729 81 186 3.0 7.0 0.00 0.00 0.00 75 1015.0
20260906134230 82 182 2.0 7.0 0.00 0.00 0.00 76 1014.9
20260906133730 81 109 2.0 6.0 0.00 0.00 0.00 78 1014.9
20260906133229 81 152 2.0 6.0 0.00 0.00 0.00 78 1014.9
20260906132729 80 155 1.0 5.0 0.00 0.00 0.00 78 1014.9
20260906132230 80 144 1.0 5.0 0.00 0.00 0.00 80 1014.8
20260906131730 79 132 0.0 1.0 0.00 0.00 0.00 82 1014.6
20260906131229 78 132 0.0 2.0 0.00 0.00 0.00 83 1014.5
20260906130728 78 132 0.0 2.0 0.00 0.00 0.00 84 1014.5
20260906130228 78 132 0.0 1.0 0.00 0.00 0.00 84 1014.5
20260906125731 77 132 0.0 1.0 0.00 0.00 0.00 85 1014.3
20260906125727 77 132 0.0 1.0 0.00 0.00 0.00 84 1014.4
20260906124726 77 132 0.0 1.0 0.00 0.00 0.00 85 1014.2
20260906124226 77 132 0.0 1.0 0.00 0.00 0.00 85 1014.1
20260906123730 77 132 0.0 1.0 0.00 0.00 0.00 85 1014.1
20260906123726 77 132 0.0 1.0 0.00 0.00 0.00 85 1014.1
20260906122726 77 132 0.0 1.0 0.00 0.00 0.00 84 1014.0
20260906122226 77 132 0.0 1.0 0.00 0.00 0.00 84 1014.0
20260906121726 77 132 0.0 1.0 0.00 0.00 0.00 84 1014.1
20260906121224 77 132 0.0 1.0 0.00 0.00 0.00 84 1014.0
20260906120724 77 132 0.0 2.0 0.00 0.00 0.00 84 1013.9
20260906120225 77 132 0.0 2.0 0.00 0.00 0.00 84 1013.7
20260906115724 77 117 0.0 2.0 0.00 0.00 0.00 84 1013.7
20260906115228 77 117 0.0 2.0 0.00 0.00 0.00 84 1013.7
20260906115223 77 117 0.0 2.0 0.00 0.00 0.00 84 1013.7
20260906114222 76 117 0.0 2.0 0.00 0.00 0.00 83 1013.7
20260906113721 76 159 0.0 1.0 0.00 0.00 0.00 83 1013.6
20260906113222 76 159 0.0 1.0 0.00 0.00 0.00 83 1013.6
20260906112722 76 159 0.0 1.0 0.00 0.00 0.00 83 1013.6
20260906112221 76 159 0.0 1.0 0.00 0.00 0.00 83 1013.6
20260906111724 76 159 0.0 1.0 0.00 0.00 0.00 83 1013.6
20260906111720 76 159 0.0 1.0 0.00 0.00 0.00 83 1013.6
20260906110717 76 159 0.0 0.0 0.00 0.00 0.00 82 1013.5
20260906110222 76 159 0.0 1.0 0.00 0.00 0.00 82 1013.4
20260906110218 76 159 0.0 0.0 0.00 0.00 0.00 82 1013.5
20260906105821 76 159 0.0 1.0 0.00 0.00 0.00 82 1013.3
20260906105320 76 159 0.0 1.0 0.00 0.00 0.00 82 1013.4
20260906104220 76 159 0.0 4.0 0.00 0.00 0.00 81 1013.4
20260906104216 76 159 0.0 4.0 0.00 0.00 0.00 82 1013.4
20260906103820 77 159 1.0 4.0 0.00 0.00 0.00 81 1013.3
20260906102720 77 165 1.0 2.0 0.00 0.00 0.00 81 1013.0
20260906102716 77 159 1.0 4.0 0.00 0.00 0.00 81 1013.1
20260906101713 77 165 0.0 2.0 0.00 0.00 0.00 81 1012.8
20260906101214 77 78 0.0 0.0 0.00 0.00 0.00 80 1012.8
20260906100718 77 78 1.0 2.0 0.00 0.00 0.00 80 1012.7
20260906100714 77 78 1.0 2.0 0.00 0.00 0.00 80 1012.6
20260906095818 78 83 1.0 2.0 0.00 0.00 0.00 80 1012.7
20260906095718 78 78 1.0 2.0 0.00 0.00 0.00 80 1012.6
20260906095714 77 78 1.0 2.0 0.00 0.00 0.00 80 1012.6
20260906094214 78 83 1.0 2.0 0.00 0.00 0.00 79 1012.6
20260906093711 78 126 0.0 2.0 0.00 0.00 0.00 79 1012.5
20260906093211 78 126 0.0 0.0 0.00 0.00 0.00 79 1012.6
20260906092712 78 126 0.0 0.0 0.00 0.00 0.00 79 1012.5
20260906092212 78 126 0.0 1.0 0.00 0.00 0.00 79 1012.6
20260906091711 78 126 1.0 1.0 0.00 0.00 0.00 79 1012.5
20260906091211 78 126 1.0 1.0 0.00 0.00 0.00 79 1012.6
20260906090712 78 126 1.0 2.0 0.00 0.00 0.00 79 1012.7
20260906090316 78 126 0.0 1.0 0.00 0.00 0.00 79 1012.7
20260906090215 78 126 1.0 2.0 0.00 0.00 0.00 79 1012.6
20260906090211 78 126 0.0 1.0 0.00 0.00 0.00 79 1012.6
20260906085918 78 127 0.0 1.0 0.00 0.00 0.00 78 1012.7
20260906084208 78 127 0.0 1.0 0.00 0.00 0.00 78 1012.8
20260906083708 78 127 1.0 1.0 0.00 0.00 0.00 78 1012.8
20260906083207 78 127 1.0 1.0 0.00 0.00 0.00 78 1012.7
20260906082708 78 126 0.0 1.0 0.00 0.00 0.00 78 1012.7
20260906082208 78 126 1.0 2.0 0.00 0.00 0.00 78 1012.8
20260906081708 79 126 0.0 2.0 0.00 0.00 0.00 78 1012.9
20260906081208 79 127 0.0 0.0 0.00 0.00 0.00 77 1013.0
20260906080708 79 127 0.0 0.0 0.00 0.00 0.00 77 1013.1
20260906080208 79 127 0.0 0.0 0.00 0.00 0.00 77 1013.2
20260906075711 79 127 0.0 0.0 0.00 0.00 0.00 76 1013.3
20260906075707 79 126 0.0 2.0 0.00 0.00 0.00 76 1013.3
20260906074711 79 127 0.0 1.0 0.00 0.00 0.00 76 1013.5
20260906074706 79 127 0.0 2.0 0.00 0.00 0.00 76 1013.4
20260906073706 79 127 0.0 1.0 0.00 0.00 0.00 76 1013.6
20260906073205 79 127 0.0 1.0 0.00 0.00 0.00 76 1013.6
20260906072706 79 126 0.0 1.0 0.00 0.00 0.00 76 1013.7
20260906072206 79 126 0.0 1.0 0.00 0.00 0.00 76 1013.8
20260906071706 80 127 0.0 1.0 0.00 0.00 0.00 75 1013.9
20260906071205 80 127 0.0 2.0 0.00 0.00 0.00 75 1013.9
20260906070706 80 127 0.0 4.0 0.00 0.00 0.00 75 1014.0
20260906070212 80 128 0.0 2.0 0.00 0.00 0.00 74 1014.0
20260906070208 80 120 1.0 4.0 0.00 0.00 0.00 74 1014.0
20260906065209 80 129 1.0 8.0 0.00 0.00 0.00 74 1014.0
20260906065205 80 150 1.0 8.0 0.00 0.00 0.00 73 1014.1
20260906064204 81 158 2.0 6.0 0.00 0.00 0.00 73 1014.1
20260906063708 81 164 2.0 7.0 0.00 0.00 0.00 72 1014.4
20260906063704 81 134 2.0 6.0 0.00 0.00 0.00 73 1014.1
20260906062706 81 150 1.0 7.0 0.00 0.00 0.00 71 1014.3
20260906062702 81 115 2.0 7.0 0.00 0.00 0.00 72 1014.4
20260906061701 81 131 1.0 6.0 0.00 0.00 0.00 71 1014.2
20260906061206 81 133 2.0 8.0 0.00 0.00 0.00 70 1014.2
20260906061202 81 107 2.0 8.0 0.00 0.00 0.00 71 1014.1
20260906060206 82 176 2.0 7.0 0.00 0.00 0.00 69 1014.1
20260906060202 81 122 2.0 7.0 0.00 0.00 0.00 70 1014.2
20260906055200 82 93 2.0 7.0 0.00 0.00 0.00 69 1014.1
20260906054700 82 170 2.0 7.0 0.00 0.00 0.00 68 1014.2
20260906054200 82 128 2.0 7.0 0.00 0.00 0.00 67 1014.1
20260906053658 82 115 2.0 8.0 0.00 0.00 0.00 66 1014.2
20260906053202 83 157 2.0 8.0 0.00 0.00 0.00 66 1014.1
20260906053158 83 141 2.0 8.0 0.00 0.00 0.00 66 1014.2
20260906052204 83 124 2.0 9.0 0.00 0.00 0.00 65 1014.1
20260906052159 83 147 2.0 7.0 0.00 0.00 0.00 66 1014.2
20260906051158 83 108 2.0 9.0 0.00 0.00 0.00 65 1014.1
20260906050658 83 150 2.0 6.0 0.00 0.00 0.00 66 1014.1
20260906050158 83 122 2.0 6.0 0.00 0.00 0.00 66 1014.1
20260906045658 83 159 3.0 7.0 0.00 0.00 0.00 66 1014.3
20260906045654 83 87 2.0 7.0 0.00 0.00 0.00 66 1014.3
20260906044658 84 194 2.0 8.0 0.00 0.00 0.00 66 1014.3
20260906044654 84 134 2.0 6.0 0.00 0.00 0.00 66 1014.3
20260906043657 84 126 1.0 6.0 0.00 0.00 0.00 66 1014.2
20260906043653 84 146 2.0 8.0 0.00 0.00 0.00 66 1014.3
20260906042653 84 140 1.0 4.0 0.00 0.00 0.00 66 1014.2
20260906042153 85 137 2.0 6.0 0.00 0.00 0.00 65 1014.2
20260906041654 85 130 2.0 6.0 0.00 0.00 0.00 65 1014.3
20260906041151 85 109 2.0 10.0 0.00 0.00 0.00 65 1014.2
20260906040651 85 121 4.0 10.0 0.00 0.00 0.00 64 1014.1
20260906040150 85 153 5.0 11.0 0.00 0.00 0.00 64 1014.1
20260906035654 86 157 5.0 10.0 0.00 0.00 0.00 63 1014.1
20260906035650 85 136 5.0 11.0 0.00 0.00 0.00 63 1014.0
20260906035253 86 153 4.0 10.0 0.00 0.00 0.00 62 1014.1
20260906034148 86 147 4.0 12.0 0.00 0.00 0.00 62 1014.0
20260906033647 86 109 5.0 12.0 0.00 0.00 0.00 61 1013.9
20260906033148 87 161 5.0 11.0 0.00 0.00 0.00 61 1013.7
20260906032645 87 140 5.0 11.0 0.00 0.00 0.00 60 1013.5
20260906032145 87 123 5.0 11.0 0.00 0.00 0.00 60 1013.4
20260906031650 87 132 4.0 9.0 0.00 0.00 0.00 58 1013.3
20260906031646 87 144 4.0 10.0 0.00 0.00 0.00 59 1013.3
20260906030645 88 121 3.0 9.0 0.00 0.00 0.00 57 1013.3
20260906030641 88 155 4.0 11.0 0.00 0.00 0.00 55 1013.0
20260906030245 88 187 3.0 8.0 0.00 0.00 0.00 56 1013.2
20260906025138 89 98 3.0 11.0 0.00 0.00 0.00 54 1012.9
20260906024638 89 121 2.0 10.0 0.00 0.00 0.00 53 1012.7
20260906024142 89 128 2.0 8.0 0.00 0.00 0.00 51 1012.4
20260906024138 89 142 2.0 10.0 0.00 0.00 0.00 52 1012.6
20260906023138 89 74 2.0 7.0 0.00 0.00 0.00 50 1012.3
20260906022638 89 172 2.0 7.0 0.00 0.00 0.00 49 1012.2
20260906022135 90 128 2.0 6.0 0.00 0.00 0.00 48 1012.1
20260906021634 90 118 3.0 10.0 0.00 0.00 0.00 48 1012.0
20260906021134 90 120 2.0 10.0 0.00 0.00 0.00 48 1012.0
20260906020633 90 132 0.0 2.0 0.00 0.00 0.00 46 1011.7
20260906020139 90 132 0.0 2.0 0.00 0.00 0.00 45 1011.3
20260906020135 90 132 0.0 1.0 0.00 0.00 0.00 46 1011.4
20260906015133 90 132 0.0 2.0 0.00 0.00 0.00 45 1011.3
20260906014638 91 106 0.0 2.0 0.00 0.00 0.00 43 1011.3
20260906014634 91 132 0.0 2.0 0.00 0.00 0.00 44 1011.2
20260906013633 91 106 0.0 1.0 0.00 0.00 0.00 43 1011.2
20260906013138 92 106 0.0 1.0 0.00 0.00 0.00 42 1011.1
20260906013134 91 106 0.0 1.0 0.00 0.00 0.00 42 1011.2
20260906012134 92 106 0.0 4.0 0.00 0.00 0.00 41 1011.1
20260906011637 92 115 1.0 4.0 0.00 0.00 0.00 41 1011.1
20260906011633 92 106 1.0 4.0 0.00 0.00 0.00 41 1011.1
20260906010639 93 126 0.0 2.0 0.00 0.00 0.00 40 1011.0
20260906010634 93 113 0.0 4.0 0.00 0.00 0.00 40 1011.1
20260906010134 93 113 1.0 4.0 0.00 0.00 0.00 40 1011.1
20260906005133 94 126 0.0 4.0 0.00 0.00 0.00 40 1011.0
20260906004634 94 126 1.0 4.0 0.00 0.00 0.00 40 1010.9
20260906004133 94 128 1.0 4.0 0.00 0.00 0.00 39 1011.1
20260906003634 95 114 1.0 4.0 0.00 0.00 0.00 39 1011.1
20260906003134 96 100 1.0 6.0 0.00 0.00 0.00 39 1011.0
20260906002633 96 148 1.0 6.0 0.00 0.00 0.00 39 1011.0
20260906002134 96 132 1.0 6.0 0.00 0.00 0.00 39 1011.0
20260906002130 96 134 2.0 6.0 0.00 0.00 0.00 39 1010.9
20260906001127 96 123 2.0 6.0 0.00 0.00 0.00 40 1010.8
20260906000625 97 157 2.0 6.0 0.00 0.00 0.00 40 1010.8
20260906000130 97 129 2.0 7.0 0.00 0.00 0.00 41 1010.8
20260906000126 97 138 2.0 7.0 0.00 0.00 0.00 40 1010.9
20260905235125 97 167 2.0 7.0 0.00 0.00 0.00 41 1010.9
20260905234626 96 164 2.0 6.0 0.00 0.00 0.00 41 1010.9
20260905234125 96 123 2.0 6.0 0.00 0.00 0.00 42 1010.9
20260905233625 97 194 3.0 9.0 0.00 0.00 0.00 41 1010.8
20260905233126 98 95 3.0 10.0 0.00 0.00 0.00 41 1011.0
20260905232625 98 117 2.0 10.0 0.00 0.00 0.00 40 1010.9
20260905232126 99 161 2.0 7.0 0.00 0.00 0.00 40 1010.9
20260905231626 99 96 3.0 10.0 0.00 0.00 0.00 40 1010.9
20260905231126 99 63 3.0 10.0 0.00 0.00 0.00 40 1010.9
20260905230625 99 100 3.0 8.0 0.00 0.00 0.00 40 1011.0
20260905230130 99 107 2.0 9.0 0.00 0.00 0.00 39 1011.0
20260905230126 99 123 3.0 9.0 0.00 0.00 0.00 40 1011.0
20260905225125 99 123 2.0 6.0 0.00 0.00 0.00 39 1011.0
20260905224626 99 120 2.0 6.0 0.00 0.00 0.00 40 1010.9
20260905224125 98 104 2.0 6.0 0.00 0.00 0.00 41 1010.9
20260905223626 98 127 3.0 9.0 0.00 0.00 0.00 42 1010.9
20260905223126 97 117 3.0 9.0 0.00 0.00 0.00 42 1011.0
20260905222629 96 74 3.0 6.0 0.00 0.00 0.00 44 1011.0
20260905222625 96 109 3.0 9.0 0.00 0.00 0.00 44 1011.0
20260905221626 96 127 3.0 7.0 0.00 0.00 0.00 44 1011.0
20260905221123 97 116 3.0 9.0 0.00 0.00 0.00 42 1011.0
20260905220624 97 122 3.0 9.0 0.00 0.00 0.00 42 1011.0
20260905220124 98 42 3.0 7.0 0.00 0.00 0.00 42 1010.9
20260905215623 100 113 3.0 7.0 0.00 0.00 0.00 40 1010.9
20260905215124 100 113 3.0 8.0 0.00 0.00 0.00 39 1010.9
20260905214624 100 110 3.0 8.0 0.00 0.00 0.00 40 1011.0
20260905214123 99 96 2.0 8.0 0.00 0.00 0.00 41 1011.1
20260905213622 99 126 1.0 5.0 0.00 0.00 0.00 42 1011.1
20260905213120 98 123 1.0 4.0 0.00 0.00 0.00 41 1011.1
20260905212623 97 114 3.0 9.0 0.00 0.00 0.00 41 1011.3
20260905212619 97 68 2.0 8.0 0.00 0.00 0.00 42 1011.2
20260905211619 98 113 4.0 10.0 0.00 0.00 0.00 41 1011.4
20260905211117 100 90 3.0 10.0 0.00 0.00 0.00 40 1011.4
20260905210618 99 159 3.0 11.0 0.00 0.00 0.00 41 1011.5
20260905210118 98 134 3.0 11.0 0.00 0.00 0.00 43 1011.5
20260905205616 98 40 2.0 8.0 0.00 0.00 0.00 44 1011.5
20260905205114 98 63 2.0 8.0 0.00 0.00 0.00 45 1011.5
20260905204614 98 110 2.0 7.0 0.00 0.00 0.00 45 1011.7
20260905204113 97 144 3.0 8.0 0.00 0.00 0.00 46 1012.0
20260905203618 98 44 3.0 8.0 0.00 0.00 0.00 44 1012.1
20260905203614 97 73 3.0 8.0 0.00 0.00 0.00 45 1012.0
20260905202614 98 154 2.0 8.0 0.00 0.00 0.00 44 1012.1
20260905202112 98 119 3.0 8.0 0.00 0.00 0.00 44 1012.2
20260905201609 97 123 4.0 8.0 0.00 0.00 0.00 42 1012.3
20260905201109 98 114 3.0 8.0 0.00 0.00 0.00 42 1012.4
20260905200610 98 119 3.0 7.0 0.00 0.00 0.00 42 1012.5
20260905200110 97 113 3.0 8.0 0.00 0.00 0.00 43 1012.8
20260905195609 97 148 2.0 8.0 0.00 0.00 0.00 42 1012.7
20260905195110 96 121 2.0 8.0 0.00 0.00 0.00 42 1012.9
20260905194612 97 219 3.0 11.0 0.00 0.00 0.00 43 1013.1
20260905194608 96 130 3.0 11.0 0.00 0.00 0.00 43 1013.0
20260905193608 97 132 3.0 8.0 0.00 0.00 0.00 43 1013.2
20260905193105 97 111 4.0 8.0 0.00 0.00 0.00 40 1013.3
20260905192605 96 205 3.0 7.0 0.00 0.00 0.00 45 1013.4
20260905192106 97 160 2.0 8.0 0.00 0.00 0.00 44 1013.5
20260905191606 96 143 2.0 8.0 0.00 0.00 0.00 45 1013.6
20260905191105 96 98 1.0 4.0 0.00 0.00 0.00 47 1013.6
20260905190606 94 28 2.0 5.0 0.00 0.00 0.00 50 1013.7
20260905190106 95 113 2.0 6.0 0.00 0.00 0.00 47 1014.0
20260905185603 95 160 2.0 6.0 0.00 0.00 0.00 48 1014.0
20260905185103 95 105 2.0 9.0 0.00 0.00 0.00 50 1014.1
20260905184604 94 118 2.0 9.0 0.00 0.00 0.00 53 1014.1
20260905184101 93 111 2.0 9.0 0.00 0.00 0.00 53 1014.2
20260905183559 93 117 2.0 9.0 0.00 0.00 0.00 53 1014.2
20260905183100 93 68 2.0 9.0 0.00 0.00 0.00 53 1014.3
20260905182558 92 179 3.0 9.0 0.00 0.00 0.00 55 1014.3
20260905182057 92 178 3.0 10.0 0.00 0.00 0.00 55 1014.4
20260905181558 92 101 3.0 10.0 0.00 0.00 0.00 57 1014.5
20260905181056 92 122 3.0 8.0 0.00 0.00 0.00 57 1014.6
20260905180555 91 121 4.0 8.0 0.00 0.00 0.00 58 1014.6
20260905180056 92 11 4.0 9.0 0.00 0.00 0.00 57 1014.7
20260905175556 91 126 5.0 11.0 0.00 0.00 0.00 60 1014.8
20260905175055 91 143 4.0 11.0 0.00 0.00 0.00 61 1014.8
20260905174555 91 170 2.0 7.0 0.00 0.00 0.00 61 1014.8
20260905174054 91 135 3.0 8.0 0.00 0.00 0.00 59 1014.9
20260905173553 91 165 3.0 8.0 0.00 0.00 0.00 62 1014.9
20260905173053 91 164 2.0 7.0 0.00 0.00 0.00 61 1015.0
20260905172556 90 111 2.0 7.0 0.00 0.00 0.00 63 1015.2
20260905172552 91 98 2.0 7.0 0.00 0.00 0.00 60 1015.1
20260905171549 89 175 2.0 6.0 0.00 0.00 0.00 63 1015.2
20260905171048 89 119 2.0 7.0 0.00 0.00 0.00 64 1015.2
20260905170545 89 121 2.0 7.0 0.00 0.00 0.00 64 1015.4
20260905170050 89 121 2.0 8.0 0.00 0.00 0.00 65 1015.5
20260905170046 90 117 2.0 8.0 0.00 0.00 0.00 64 1015.5